Cincinnati, OH

1:05 AM EST on November 19, 2019 (GMT -0500)
Cincinnati Municipal-Lunken

Weather History for KLUK - September, 2019

Change the Weather History Date:

Thursday, September 19, 2019

  Actual Average Record
Temperature  
Mean Temperature 72 °F -  
Max Temperature 86 °F 77 °F 92 °F (1978)
Min Temperature 57 °F 57 °F 41 °F (1959)
Cooling Degree Days 6    
Growing Degree Days 22 (Base 50)    
Moisture  
Dew Point 62 °F    
Average Humidity 73    
Maximum Humidity 93    
Minimum Humidity 55    
Precipitation  
Precipitation 0.00 in - - ()
Sea Level Pressure  
Sea Level Pressure 30.09 in    
Wind  
Wind Speed 2 mph ()    
Max Wind Speed 8 mph    
Max Gust Speed -    
Visibility 10.0 miles    
Events      
Averages and records for this station are not official NWS values.
T = Trace of Precipitation, MM = Missing Value Source: Averaged Metar Reports

Daily Weather History Graph

Daily Weather History Graph

Search for Another Location

Airport or City:

Astronomy

Sep. 19, 2019 Rise Set
Actual Time 7:22 AM EDT 7:39 PM EDT
Civil Twilight 6:55 AM EDT 8:06 PM EDT
Nautical Twilight 6:24 AM EDT 8:37 PM EDT
Astronomical Twilight 5:52 AM EDT 9:09 PM EDT
Moon 10:50 PM EDT 12:22 PM EDT
Length of Visible Light 13h 10m
Length of Day
12h 17m
Waning Gibbous, 74% of the Moon is Illuminated
Sep 19
Waning Gibbous
Sep 21
Last Quarter
Sep 28
New
Oct 5
First Quarter
Oct 13
Full

Hourly Weather History & Observations

Time (EDT) Temp. Heat Index Dew Point Humidity Pressure Visibility Wind Dir Wind Speed Gust Speed Precip Events Conditions
12:53 AM 61.0 °F - 57.9 °F 90% 30.10 in 10.0 mi Calm Calm - N/A   Clear
1:53 AM 60.1 °F - 57.0 °F 90% 30.10 in 10.0 mi Calm Calm - N/A   Clear
2:53 AM 57.9 °F - 55.9 °F 93% 30.09 in 10.0 mi Calm Calm - N/A   Clear
3:53 AM 60.1 °F - 57.0 °F 90% 30.09 in 10.0 mi Calm Calm - N/A   Clear
4:53 AM 59.0 °F - 57.0 °F 93% 30.09 in 10.0 mi ENE 3.5 mph - N/A   Clear
5:53 AM 59.0 °F - 57.0 °F 93% 30.09 in 10.0 mi ENE 4.6 mph - N/A   Clear
6:53 AM 59.0 °F - 57.0 °F 93% 30.09 in 10.0 mi ENE 3.5 mph - N/A   Partly Cloudy
7:53 AM 60.1 °F - 57.0 °F 90% 30.10 in 10.0 mi NE 3.5 mph - N/A   Partly Cloudy
8:53 AM 64.9 °F - 57.9 °F 78% 30.12 in 10.0 mi NE 3.5 mph - N/A   Partly Cloudy
9:53 AM 70.0 °F - 60.1 °F 71% 30.13 in 10.0 mi Calm Calm - N/A   Partly Cloudy
10:53 AM 73.9 °F - 63.0 °F 68% 30.13 in 10.0 mi Variable 3.5 mph - N/A   Clear
11:53 AM 78.1 °F - 64.9 °F 64% 30.13 in 10.0 mi Variable 4.6 mph - N/A   Partly Cloudy
12:36 PM 80.1 °F 82.1 °F 66.0 °F 62% 30.13 in 10.0 mi Variable 4.6 mph - N/A   Clear
12:53 PM 80.1 °F 82.1 °F 66.0 °F 62% 30.12 in 10.0 mi SW 4.6 mph - N/A   Clear
1:53 PM 82.9 °F 85.4 °F 66.9 °F 58% 30.10 in 10.0 mi SSE 6.9 mph - N/A   Partly Cloudy
2:53 PM 84.0 °F 86.5 °F 66.9 °F 56% 30.09 in 10.0 mi Variable 4.6 mph - N/A   Partly Cloudy
3:53 PM 86.0 °F 89.4 °F 68.0 °F 55% 30.07 in 10.0 mi South 3.5 mph - N/A   Partly Cloudy
4:53 PM 84.0 °F 86.3 °F 66.0 °F 55% 30.06 in 10.0 mi SE 5.8 mph - N/A   Partly Cloudy
5:53 PM 82.9 °F 85.0 °F 66.0 °F 56% 30.05 in 10.0 mi SE 3.5 mph - N/A   Mostly Cloudy
6:53 PM 82.0 °F 84.1 °F 66.0 °F 58% 30.06 in 10.0 mi East 4.6 mph - N/A   Scattered Clouds
7:53 PM 80.1 °F 82.1 °F 66.0 °F 62% 30.06 in 10.0 mi East 8.1 mph - N/A   Scattered Clouds
8:53 PM 78.1 °F - 66.0 °F 66% 30.08 in 10.0 mi ESE 5.8 mph - N/A   Clear
9:53 PM 75.0 °F - 64.9 °F 71% 30.09 in 10.0 mi Variable 3.5 mph - N/A   Clear
10:53 PM 73.9 °F - 64.9 °F 73% 30.09 in 10.0 mi Calm Calm - N/A   Clear
11:53 PM 73.0 °F - 64.9 °F 76% 30.09 in 10.0 mi Calm Calm - N/A   Clear